Weather History for Sterling, IL

Change the Weather History Date:

Saturday, March 3, 2012

  Actual Average Record
Temperature  
Mean Temperature 30 °F -  
Max Temperature 32 °F 36 °F 46 °F (2001)
Min Temperature 28 °F 21 °F -9 °F (2014)
Degree Days  
Heating Degree Days 35    
Moisture  
Dew Point 23 °F    
Average Humidity 75    
Maximum Humidity 80    
Minimum Humidity 69    
Precipitation  
Precipitation 0.02 in - - ()
Sea Level Pressure  
Sea Level Pressure 29.73 in    
Wind  
Wind Speed 20 mph (West)    
Max Wind Speed 25 mph    
Max Gust Speed 32 mph    
Visibility 10 miles    
Events      
Averages and records for this station are not official NWS values.
T = Trace of Precipitation, MM = Missing Value Source: NWS Daily Summary

Daily Weather History Graph

Daily Weather History Graph

Search for Another Location

Airport:

Trip Planner

Search our weather history database for the weather conditions in past years. The results will help you decide how hot, cold, wet, or windy it might be!

Date:

Astronomy

Mar. 03, 2012 Rise Set
Actual Time 6:29 AM CST 5:52 PM CST
Civil Twilight 6:01 AM CST 6:19 PM CST
Nautical Twilight 5:29 AM CST 6:52 PM CST
Astronomical Twilight 4:57 AM CST 7:24 PM CST
Moon 12:58 PM CST (3/3) 3:10 AM CST (3/3)
Length of Visible Light 12h 18m
Length of Day
11h 22m
Waxing Gibbous, 75% of the Moon is Illuminated
Mar 3
Waxing Gibbous
Mar 8
Full
Mar 14
Last Quarter
Mar 22
New
Mar 30
First Quarter

Hourly Weather History & Observations

Time (CST) Temp. Windchill Dew Point Humidity Pressure Visibility Wind Dir Wind Speed Gust Speed Precip Events Conditions
12:15 AM 32.0 °F 20.8 °F 23.0 °F 69% 29.68 in 10.0 mi West 17.3 mph 25.3 mph N/A   Overcast
12:35 AM 32.0 °F 20.1 °F 24.8 °F 75% 29.67 in 10.0 mi West 19.6 mph 25.3 mph N/A   Overcast
12:55 AM 32.0 °F 18.6 °F 23.0 °F 69% 29.67 in 10.0 mi West 25.3 mph 32.2 mph N/A   Overcast
1:15 AM 32.0 °F 19.8 °F 23.0 °F 69% 29.68 in 10.0 mi West 20.7 mph 31.1 mph N/A   Overcast
1:35 AM 30.2 °F 17.4 °F 24.8 °F 80% 29.68 in 10.0 mi West 20.7 mph 26.5 mph N/A   Overcast
1:55 AM 30.2 °F 18.1 °F 23.0 °F 75% 29.67 in 10.0 mi West 18.4 mph 23.0 mph N/A   Overcast
2:15 AM 30.2 °F 17.1 °F 24.8 °F 80% 29.67 in 10.0 mi West 21.9 mph 28.8 mph N/A   Overcast
2:35 AM 30.2 °F 18.1 °F 24.8 °F 80% 29.67 in 10.0 mi West 18.4 mph - N/A   Overcast
2:55 AM 30.2 °F 17.8 °F 23.0 °F 75% 29.67 in 10.0 mi West 19.6 mph 25.3 mph N/A   Overcast
3:15 AM 30.2 °F 17.1 °F 24.8 °F 80% 29.67 in 10.0 mi West 21.9 mph 25.3 mph N/A   Overcast
3:35 AM 30.2 °F 16.5 °F 24.8 °F 80% 29.67 in 10.0 mi West 24.2 mph 31.1 mph N/A   Overcast
3:55 AM 30.2 °F 17.1 °F 24.8 °F 80% 29.67 in 10.0 mi West 21.9 mph 28.8 mph N/A   Overcast
4:15 AM 30.2 °F 17.4 °F 24.8 °F 80% 29.68 in 10.0 mi West 20.7 mph 27.6 mph N/A   Overcast
4:35 AM 30.2 °F 18.1 °F 23.0 °F 75% 29.68 in 10.0 mi West 18.4 mph - N/A   Overcast
4:55 AM 30.2 °F 17.4 °F 23.0 °F 75% 29.68 in 10.0 mi West 20.7 mph 27.6 mph N/A   Overcast
5:15 AM 30.2 °F 16.8 °F 23.0 °F 75% 29.68 in 10.0 mi West 23.0 mph 28.8 mph N/A   Overcast
5:35 AM 30.2 °F 18.1 °F 23.0 °F 75% 29.68 in 10.0 mi West 18.4 mph - N/A   Overcast
5:55 AM 30.2 °F 18.1 °F 23.0 °F 75% 29.68 in 10.0 mi WSW 18.4 mph 24.2 mph N/A   Overcast
6:15 AM 30.2 °F 18.9 °F 23.0 °F 75% 29.68 in 10.0 mi WSW 16.1 mph - N/A   Overcast
6:55 AM 30.2 °F 17.4 °F 23.0 °F 75% 29.69 in 10.0 mi West 20.7 mph - N/A   Overcast
7:15 AM 30.2 °F 17.4 °F 23.0 °F 75% 29.70 in 10.0 mi West 20.7 mph 28.8 mph N/A   Overcast
7:35 AM 30.2 °F 18.1 °F 23.0 °F 75% 29.71 in 10.0 mi West 18.4 mph 28.8 mph N/A   Overcast
7:55 AM 30.2 °F 16.5 °F 23.0 °F 75% 29.72 in 10.0 mi West 24.2 mph 29.9 mph N/A   Overcast
8:15 AM 30.2 °F 17.1 °F 23.0 °F 75% 29.73 in 10.0 mi West 21.9 mph - N/A   Overcast
8:35 AM 30.2 °F 16.8 °F 23.0 °F 75% 29.73 in 10.0 mi West 23.0 mph 31.1 mph N/A   Overcast
8:55 AM 30.2 °F 16.8 °F 24.8 °F 80% 29.74 in 10.0 mi WNW 23.0 mph - N/A   Overcast
9:15 AM 28.4 °F 15.1 °F 21.2 °F 74% 29.75 in 8.0 mi West 20.7 mph - N/A   Overcast
9:35 AM 30.2 °F 16.5 °F 21.2 °F 69% 29.74 in 10.0 mi WNW 24.2 mph 31.1 mph N/A   Overcast
9:55 AM 30.2 °F 18.5 °F 21.2 °F 69% 29.75 in 10.0 mi West 17.3 mph 26.5 mph N/A   Overcast
10:15 AM 30.2 °F 16.2 °F 21.2 °F 69% 29.75 in 10.0 mi West 25.3 mph 31.1 mph N/A   Overcast
10:35 AM 30.2 °F 17.4 °F 21.2 °F 69% 29.75 in 10.0 mi West 20.7 mph 28.8 mph N/A   Overcast
11:15 AM 30.2 °F 16.8 °F 21.2 °F 69% 29.77 in 10.0 mi West 23.0 mph 31.1 mph N/A   Overcast
11:35 AM 30.2 °F 17.4 °F 23.0 °F 75% 29.77 in 10.0 mi West 20.7 mph 26.5 mph N/A   Overcast
11:55 AM 30.2 °F 17.4 °F 23.0 °F 75% 29.77 in 10.0 mi West 20.7 mph 32.2 mph N/A   Overcast
12:15 PM 30.2 °F 16.8 °F 21.2 °F 69% 29.78 in 10.0 mi West 23.0 mph 29.9 mph N/A   Overcast
12:35 PM 30.2 °F 16.2 °F 23.0 °F 75% 29.78 in 10.0 mi West 25.3 mph - N/A   Overcast
12:55 PM 30.2 °F 17.4 °F 23.0 °F 75% 29.78 in 10.0 mi West 20.7 mph 28.8 mph N/A   Overcast
1:15 PM 30.2 °F 17.1 °F 23.0 °F 75% 29.77 in 10.0 mi West 21.9 mph - N/A   Overcast
1:35 PM 30.2 °F 16.8 °F 23.0 °F 75% 29.77 in 10.0 mi West 23.0 mph - N/A   Overcast
1:55 PM 30.2 °F 17.1 °F 23.0 °F 75% 29.77 in 10.0 mi West 21.9 mph - N/A   Overcast
2:15 PM 30.2 °F 17.8 °F 24.8 °F 80% 29.77 in 10.0 mi West 19.6 mph 28.8 mph N/A   Overcast
2:35 PM 30.2 °F 17.1 °F 24.8 °F 80% 29.78 in 10.0 mi West 21.9 mph 27.6 mph N/A   Overcast
2:55 PM 32.0 °F 20.1 °F 24.8 °F 75% 29.78 in 10.0 mi West 19.6 mph 24.2 mph N/A   Overcast
3:15 PM 32.0 °F 20.5 °F 24.8 °F 75% 29.78 in 10.0 mi West 18.4 mph 23.0 mph N/A   Overcast
3:35 PM 30.2 °F 17.8 °F 23.0 °F 75% 29.79 in 10.0 mi West 19.6 mph 23.0 mph N/A   Overcast
3:56 PM 30.2 °F 20.8 °F 24.8 °F 80% 29.80 in 10.0 mi West 11.5 mph - N/A   Overcast
4:15 PM 30.2 °F 17.8 °F 24.8 °F 80% 29.80 in 10.0 mi West 19.6 mph 23.0 mph N/A   Overcast
4:35 PM 30.2 °F 18.1 °F 24.8 °F 80% 29.81 in 10.0 mi West 18.4 mph 24.2 mph N/A   Overcast
4:55 PM 30.2 °F 18.1 °F 23.0 °F 75% 29.82 in 10.0 mi WNW 18.4 mph 25.3 mph N/A   Overcast
5:35 PM 30.2 °F 18.1 °F 23.0 °F 75% 29.83 in 10.0 mi WNW 18.4 mph - N/A   Overcast
5:55 PM 30.2 °F 19.3 °F 23.0 °F 75% 29.84 in 10.0 mi West 15.0 mph 19.6 mph N/A   Overcast
6:15 PM 30.2 °F 18.5 °F 23.0 °F 75% 29.84 in 10.0 mi West 17.3 mph - N/A   Overcast
6:35 PM 30.2 °F 19.3 °F 23.0 °F 75% 29.85 in 10.0 mi West 15.0 mph - N/A   Overcast
6:55 PM 30.2 °F 19.3 °F 23.0 °F 75% 29.85 in 10.0 mi West 15.0 mph 21.9 mph N/A   Overcast
7:15 PM 30.2 °F 18.9 °F 23.0 °F 75% 29.85 in 10.0 mi West 16.1 mph 23.0 mph N/A   Overcast
7:35 PM 30.2 °F 19.3 °F 21.2 °F 69% 29.85 in 10.0 mi West 15.0 mph - N/A   Overcast
7:55 PM 30.2 °F 18.1 °F 23.0 °F 75% 29.85 in 10.0 mi West 18.4 mph 21.9 mph N/A   Overcast
8:15 PM 30.2 °F 19.8 °F 23.0 °F 75% 29.85 in 10.0 mi West 13.8 mph - N/A   Overcast
8:35 PM 30.2 °F 18.9 °F 23.0 °F 75% 29.85 in 10.0 mi West 16.1 mph 20.7 mph N/A   Overcast
9:15 PM 30.2 °F 19.3 °F 23.0 °F 75% 29.85 in 10.0 mi West 15.0 mph - N/A   Overcast
9:35 PM 30.2 °F 19.8 °F 21.2 °F 69% 29.85 in 10.0 mi West 13.8 mph - N/A   Overcast
9:55 PM 30.2 °F 19.8 °F 21.2 °F 69% 29.85 in 10.0 mi West 13.8 mph - N/A   Overcast
10:15 PM 30.2 °F 19.3 °F 23.0 °F 75% 29.85 in 10.0 mi West 15.0 mph - N/A   Overcast
10:35 PM 30.2 °F 19.3 °F 21.2 °F 69% 29.85 in 10.0 mi West 15.0 mph - N/A   Overcast
10:55 PM 28.4 °F 18.5 °F 21.2 °F 74% 29.85 in 10.0 mi West 11.5 mph - N/A   Overcast
11:15 PM 28.4 °F 17.5 °F 21.2 °F 74% 29.85 in 10.0 mi West 13.8 mph - N/A   Overcast
11:35 PM 28.4 °F 17.0 °F 21.2 °F 74% 29.85 in 10.0 mi West 15.0 mph - N/A   Overcast
11:55 PM 28.4 °F 18.0 °F 21.2 °F 74% 29.84 in 10.0 mi West 12.7 mph - N/A   Overcast